Wind_Speed
14 14 14 13 12 12 11 11 11 11 11 9 9 9 8 8 9 8 8 9 10 11
15 13 13 12 11 10 10 10 10 11 11 11 10 10 10 10 9 10 11 11 13 11
16 14 12 11 10 10 11 11 11 11 11 11 11 10 11 12 11 12 11 10 10 11
15 13 11 10 10 10 11 11 12 12 13 13 12 11 12 13 13 13 13 13 12 13
16 14 11 10 10 10 11 11 13 13 14 14 14 14 14 15 14 14 14 15 15 16
17 17 15 13 12 11 11 11 12 12 13 14 14 15 16 16 17 17 17 17 17 17
18 17 15 14 12 12 12 12 12 12 13 13 14 16 16 17 18 19 19 19 19 19
15 15 15 14 13 12 11 11 12 14 14 14 15 16 17 18 18 19 20 20 20 20
14 14 14 14 14 14 13 12 12 12 13 14 15 16 16 17 20 20 22 23 23 22
13 14 14 14 14 14 14 13 14 14 14 15 15 14 15 16 17 20 21 22 24 24
13 14 14 14 14 15 14 15 15 15 15 16 16 15 14 14 16 19 21 22 23 24
13 14 15 16 16 16 16 16 16 16 16 16 16 14 14 14 16 19 20 21 20 21
14 15 17 17 17 17 17 18 19 19 17 17 17 15 15 12 13 17 19 21 21 20
15 16 16 18 19 19 19 19 20 20 21 19 16 16 15 12 12 14 16 19 21 21
Wind_Direction
327 315 309 303 293 287 287 300 305 305 304 301 294 292 290 282 271 268 267 268 275 278
336 325 315 306 294 286 284 294 296 299 300 299 296 292 289 286 289 274 272 274 276 276
332 327 316 305 296 287 283 285 285 284 284 286 288 288 286 287 288 283 283 281 291 273
338 331 316 307 301 291 285 283 286 289 289 287 284 284 282 280 279 272 271 269 269 268
356 350 337 324 319 306 299 295 295 294 291 289 288 290 287 286 283 279 274 275 272 268
1 0 356 343 328 319 311 306 299 295 293 292 291 291 290 287 286 284 281 279 277 277
360 358 354 350 344 332 320 313 308 303 299 295 291 287 286 284 282 281 281 281 277 274
352 353 352 351 346 342 336 327 319 314 312 310 304 302 301 294 288 284 283 281 279 277
344 345 348 350 351 349 343 337 332 327 321 318 313 310 303 295 290 289 287 286 288 286
333 338 341 343 343 345 345 341 338 335 330 326 323 321 311 302 291 287 284 285 286 286
324 329 332 334 337 340 341 341 339 337 336 330 333 331 324 314 300 294 292 289 287 285
313 316 322 326 328 331 331 331 332 332 332 333 334 339 336 327 319 312 308 308 304 298
307 311 316 318 316 314 315 317 321 321 323 324 323 329 332 325 309 305 308 309 311 311
302 301 305 306 303 303 302 305 309 310 310 311 309 313 321 324 306 301 301 302 305 307
Height
792 790 788 786 786 785 785 786 786 785 784 782 781 780 779 778 777 777 776 776 775 774
790 787 785 784 783 783 782 782 781 781 781 780 779 778 777 776 775 775 774 773 772 772
788 785 783 781 781 780 780 779 777 776 776 775 775 774 773 772 772 772 771 771 770 769
785 782 780 779 778 777 776 775 774 774 774 773 771 770 769 769 768 767 766 766 766 765
785 782 779 778 776 775 774 773 772 771 770 769 769 768 767 766 765 764 763 763 762 760
785 782 780 778 776 774 772 771 769 767 766 765 765 764 763 762 761 760 759 758 757 756
784 781 779 777 774 773 771 769 767 765 763 761 759 758 757 756 755 754 753 753 752 751
784 782 779 776 773 771 768 766 765 763 761 759 757 755 753 751 750 750 748 747 747 746
783 780 777 774 771 769 767 764 762 759 757 755 753 751 749 747 744 744 744 743 742 741
780 778 775 773 770 767 764 762 760 758 755 752 749 747 745 743 740 738 736 736 735 734
776 774 773 771 768 766 763 760 757 755 752 750 747 744 741 738 736 734 732 730 728 727
772 770 769 767 766 764 761 757 754 751 749 745 743 741 737 735 734 730 727 725 724 723
770 768 766 764 762 760 757 754 752 748 746 743 739 737 735 730 727 724 722 721 717 717
765 763 762 759 757 754 752 750 747 744 741 738 736 732 728 726 724 720 717 715 712 710